Location: São Paulo
(23.5507°S, 46.6334°W)
Time: 22:02:36
(UTC-03:00)

A-11 Canister half - Visible Passes

Search period start: 06 February 2026 00:00
Search period end: 16 February 2026 00:00
Orbit: 1526 x 1682 km, 47.3° (Epoch: 6 February)

Date Brightness Start Highest point End Pass type
(mag) Time Alt. Az. Time Alt. Az. Time Alt. Az.
6 Feb 9.8 05:19:19 10° NNW 05:28:59 55° NE 05:38:49 10° SE visible
7 Feb 9.8 04:57:35 10° NNW 05:07:08 51° NE 05:16:52 10° ESE visible
8 Feb 9.9 04:35:53 10° NNW 04:45:18 48° NE 04:54:54 10° ESE visible
9 Feb 9.9 04:14:58 13° NNW 04:23:28 45° NE 04:32:55 10° ESE visible
10 Feb 9.9 03:54:53 19° N 04:01:39 42° NE 04:10:57 10° ESE visible
11 Feb 10.0 03:34:46 24° N 03:39:50 39° NE 03:48:56 10° ESE visible
12 Feb 10.0 03:14:36 29° NNE 03:18:00 36° NE 03:26:56 10° ESE visible
12 Feb 9.3 05:12:55 10° WNW 05:22:45 62° SW 05:32:52 10° SE visible
13 Feb 10.0 02:54:22 32° NE 02:56:11 34° NE 03:04:53 10° ESE visible
13 Feb 9.3 04:52:41 17° WNW 05:00:51 66° SW 05:11:01 10° SE visible
14 Feb 10.1 02:34:06 31° NE 02:34:22 31° NE 02:42:49 10° ESE visible
14 Feb 9.2 04:32:25 25° WNW 04:38:58 69° SW 04:49:09 10° SE visible
15 Feb 10.3 02:13:47 28° ENE 02:13:47 28° ENE 02:20:44 10° ESE visible
15 Feb 9.1 04:12:05 35° WNW 04:17:04 73° SW 04:27:17 10° SE visible
